Showing default

EZIE-A, 63247

Orbit data source: Space-Track

EZIE-A, 63247 is an American payload satellite in SSO that was launched on Sat, 15 Mar 2025 UTC via an FALCON 9 launch vehicle from the Air Force Western Test Range (AFWTR). Payload-class satellites include a variety of spacecraft equipped with specific instruments for various scientific and technological missions. These include communications satellites like Starlink; space stations such as the ISS; scientific satellites like the Hubble; Earth observation satellites from companies like Planet Labs, Umbra, and HawkEye 360; GPS; miniature CubeSats for education and research; and military/defense satellites.

Loading next visibility...
Identifier
63247, 2025-052AP
Orbit
SSO
Country
Flag of USUS
Related business
Manufacturer
APL
Mission
Operational Civil Science
Bus & Motor
CUBESAT 6U, Unknown motor
Mass
~10 kg wet, ~10 kg dry
Launch date (UTC)
2025-03-15 (1 year ago)
Launch vehicle
FALCON 9
Launch site
Air Force Western Test Range (AFWTR)
Object type
Payload
Rocket body
Debris
Shape & HBR
Box, 0.4 m
Radar Cross Section
0.035 m², Medium (>0.1 m² and < 1m²)

Expand to show TLE details & history
Last TLE update: 14 hours ago

TLE from 14 hours ago
0 EZIE-A
1 63247U 25052AP  26166.64308083  .00004443  00000-0  38783-3 0  9996
2 63247  97.6897  58.8299 0002886 167.3159 192.8137 14.97322466 68433
Epoch: 2026-06-15T15:26Z
TLE epoch observation values (Epoch: 2026-06-15T15:26:02.183Z)
Latitude
0.00005°
Longitude
-76.60573°
Altitude
580.182 km
Speed
7.569 km/s
True Right ascension
03h 55m 19s
True Declination
0° 00' 00"
Sunlit
Object was in daylight at epoch
Visualization orbit readout
Latitude
Unknown
Longitude
Unknown
Altitude
Unknown
Speed
Unknown
Apparent Right ascension
Unknown
Apparent Declination
Unknown
Sunlit
N/A
Visualization observer readout
Local Sidereal Time
15:59:19
Azimuth
Unknown
Elevation
Unknown
Doppler factor
Unknown
Orbital elements
Apogee altitude
574.188 km
Perigee altitude
570.176 km
Semi-major axis
6,950.319 km
Eccentricity
0.00029
Inclination
97.6897°
RAAN
58.8299°
Arg. of periapsis
167.3159°
True anomaly
192.80637°
Mean anomaly
192.8137°
Eccentric anomaly
192.81003°
Mean motion
3.74573 °/min
Orbital period
96.11 mins
BSTAR
0.00038783
Loading maneuver chart data...
Computing Atmospheric mass density...
Loading historical data...
Loading historical data...
Loading historical data...
Loading historical data...
Loading historical data...
Loading historical data...
Loading historical data...

Documentation

Showing up to 5 results
|